Regional Weather Roundup
Issued by NWS

Home | Current Version | Previous Version | Text Only | Print | Product List | Glossary On
Versions: 1 2 3 4 5 6 7 8 9 10 11 12 13 14 15 16 17 18 19 20 21 22 23 24 25 26 27 28 29 30 31 32 33 34 35 36 37 38 39 40 41 42 43 44 45 46 47 48 49 50
000
ASUS46 KSEW 221610
RWRWA

WASHINGTON REGIONAL WEATHER ROUNDUP
NATIONAL WEATHER SERVICE SEATTLE WA
900 AM PDT MON MAY 22 2017

NOTE:"FAIR" INDICATES FEW OR NO CLOUDS BELOW 12,000 FEET WITH NO
SIGNIFICANT WEATHER AND/OR OBSTRUCTIONS TO VISIBILITY.

WAZ507-509-555>559-221700-
SEATTLE, TACOMA, EVERETT, AND VICINITY

CITY           SKY/WX    TMP DP  RH WIND       PRES   REMARKS
EVERETT        MOSUNNY   62  53  72 NW5       30.18F
BOEING FIELD   MOSUNNY   66  54  65 VRB3      30.16F
RENTON         MOSUNNY   63  56  78 N6        30.16F
SEATAC AIRPORT PTSUNNY   67  54  63 N6        30.17S
JBLM-MCCHORD   MOSUNNY   66  58  74 NE3       30.16S
PUYALLUP         N/A     68  57  68 CALM      30.17S
BREMERTON      MOSUNNY   65  50  58 NE12G20   30.17F
JBLM-FT LEWIS  SUNNY     64  53  65 CALM      30.19S
TACOMA NARROWS MOSUNNY   63  53  70 CALM      30.17F
$$

WAZ001-503-506-510-514-515-221700-
NORTH INTERIOR

CITY           SKY/WX    TMP DP  RH WIND       PRES   REMARKS
BELLINGHAM     MOSUNNY   65  53  65 N6        30.18S
FRIDAY HARBOR  MOSUNNY   64  53  67 N8        30.21R
EASTSOUND      MOSUNNY   61  54  77 N5        30.20R
PORT ANGELES   MOSUNNY   66  47  50 NE5       30.21R
EDIZ HOOK      FAIR      60  49  68 N3        30.21R
PORT TOWNSEND  FAIR      66  52  59 NW7       30.19R
NAS WHIDBEY    PTSUNNY   59  50  72 NW7       30.22S
ARLINGTON      MOSUNNY   64  48  55 CALM      30.19F
BURLINGTON     SUNNY     64  54  68 NW3       30.18S
$$

WAZ020-022-039-040-504-511-512-221700-
SOUTHWEST INTERIOR

CITY           SKY/WX    TMP DP  RH WIND       PRES   REMARKS
SHELTON        MOSUNNY   65  51  60 E6        30.15S
OLYMPIA        MOSUNNY   65  53  65 N7        30.16F
CHEHALIS       FAIR      66  55  68 VRB5      30.15F
KELSO          MOSUNNY   68  52  56 N7        30.12S
VANCOUVER      SUNNY     69  56  62 NW8       30.08F
SCAPPOOSE, OR  SUNNY     71  54  54 NE9       30.08S
PORTLAND, OR   MOSUNNY   68  53  58 W7        30.09F
$$

WAZ021-516-517-221700-
WASHINGTON COAST

CITY           SKY/WX    TMP DP  RH WIND       PRES   REMARKS
FORKS          PTSUNNY   62  51  67 CALM      30.16F
HOQUIAM        MOSUNNY   61  57  87 SE3       30.15R
ASTORIA, OR    MOSUNNY   63  52  67 NW6       30.10S
$$

WAZ019-023-024-040-567>569-221700-
CASCADE MOUNTAINS AND COLUMBIA GORGE

CITY           SKY/WX    TMP DP  RH WIND       PRES   REMARKS
STAMPEDE PASS  SUNNY     64  46  52 VRB3      30.26S
TROUTDALE, OR  SUNNY     67  55  65 NW3       30.08F
THE DALLES, OR SUNNY     67  52  58 CALM      30.16S
$$

WAZ026-027-041>044-520-521-221700-
EAST SLOPES

CITY           SKY/WX    TMP DP  RH WIND       PRES   REMARKS
OMAK           SUNNY     68  47  46 NE7       30.19S
WENATCHEE      SUNNY     66  43  43 W10       30.19S
ELLENSBURG     SUNNY     63  50  62 SE3       30.21S
YAKIMA         SUNNY     70  49  47 NW8       30.19S
SUNNYSIDE ARPT SUNNY     63  51  64 CALM      30.18S
$$

WAZ028-034-035-221700-
COLUMBIA BASIN

CITY           SKY/WX    TMP DP  RH WIND       PRES   REMARKS
EPHRATA        SUNNY     72  43  35 CALM      30.17S
MOSES LAKE     SUNNY     71  46  40 CALM      30.18S
PASCO          SUNNY     67  49  52 CALM      30.17S
HERMISTON, OR  SUNNY     68  55  63 VRB3      30.16S
$$

WAZ036>038-221700-
NORTHEAST WASHINGTON

CITY           SKY/WX    TMP DP  RH WIND       PRES   REMARKS
SPOKANE GEIGER MOSUNNY   65  47  52 E5        30.21S
SPOKANE FELTS  SUNNY     65  51  60 CALM      30.21F
FAIRCHILD AFB  SUNNY     64  49  58 CALM      30.20F
COEURDALENE,ID SUNNY     64  49  57 NE5       30.23R
DEER PARK      SUNNY     66  46  48 CALM      30.21S
$$

WAZ029>033-221700-
SOUTHEAST WASHINGTON

CITY           SKY/WX    TMP DP  RH WIND       PRES   REMARKS
PULLMAN        SUNNY     65  49  56 E6        30.25R
LEWISTON, ID   SUNNY     65  50  58 NE6       30.22S
WALLA WALLA    SUNNY     68  51  54 W3        30.17S
PENDLETON, OR  SUNNY     67  54  63 SE3       30.18R
$$



USA.gov is the U.S. government's official web portal to all federal, state and local government web resources and services.